This is the latest recevied weather packets stored in our database for station/object BV1EV-2. If no packets are shown the sender has not sent any weather packets the latest 10 day(s).
| Time | Temp. | Humidity | Pressure | Rain* | Wind** | Luminosity | Snow |
|---|---|---|---|---|---|---|---|
| 1777507067 | 25° C | 34% | 1013.8 hPa | - | - | - | - |
| 1777505868 | 25° C | 34% | 1013.7 hPa | - | - | - | - |
| 1777504669 | 25.56° C | 33% | 1013.4 hPa | - | - | - | - |
| 1777503468 | 25.56° C | 33% | 1013.1 hPa | - | - | - | - |
| 1777502267 | 25.56° C | 34% | 1012.8 hPa | - | - | - | - |
| 1777501068 | 26.11° C | 34% | 1012.5 hPa | - | - | - | - |
| 1777499867 | 26.11° C | 34% | 1012.3 hPa | - | - | - | - |
| 1777498668 | 26.11° C | 34% | 1012.2 hPa | - | - | - | - |
| 1777497468 | 26.11° C | 34% | 1012.2 hPa | - | - | - | - |
| 1777496268 | 26.11° C | 34% | 1012.1 hPa | - | - | - | - |
| 1777495068 | 26.67° C | 34% | 1012.1 hPa | - | - | - | - |
| 1777493867 | 27.22° C | 36% | 1012.1 hPa | - | - | - | - |
| 1777492667 | 27.78° C | 39% | 1011.9 hPa | - | - | - | - |
| 1777491467 | 27.78° C | 46% | 1011.9 hPa | - | - | - | - |
| 1777490268 | 27.78° C | 35% | 1011.9 hPa | - | - | - | - |
| 1777489068 | 28.33° C | 37% | 1011.8 hPa | - | - | - | - |
| 1777487868 | 28.89° C | 43% | 1011.9 hPa | - | - | - | - |
| 1777486668 | 28.89° C | 44% | 1011.9 hPa | - | - | - | - |
| 1777485467 | 28.89° C | 41% | 1011.9 hPa | - | - | - | - |
| 1777484268 | 28.89° C | 41% | 1012.2 hPa | - | - | - | - |
| 1777483068 | 28.33° C | 51% | 1011.9 hPa | - | - | - | - |
| 1777481868 | 28.33° C | 45% | 1012.3 hPa | - | - | - | - |
| 1777480668 | 28.33° C | 41% | 1012.5 hPa | - | - | - | - |
| 1777479468 | 28.33° C | 42% | 1012.6 hPa | - | - | - | - |
| 1777478267 | 28.33° C | 44% | 1012.4 hPa | - | - | - | - |
* Rain since midnight (hover to see other rain measurements)
** Current wind speed in m/s (hover to see current wind gust speed)